Location: Chittendens Corners
(41.2320°N, 81.4940°W)
Time: 17:11:33
(UTC+00:00)

CZ-2D R/B - Pass Details

Date: 29 October 2020
Orbit: 522 x 537 km, 97.4° (Epoch: 28 November)

Event Time Altitude Azimuth Distance (km) Brightness Sun altitude
Rises 23:40:13 0° 162° (SSE) 2,648 6.7 -14.8°
Reaches altitude 10° 23:42:19 10° 161° (SSE) 1,761 5.7 -15.2°
Maximum altitude 23:46:06 73° 76° (ENE) 552 3.1 -15.9°
Drops below altitude 10° 23:49:54 10° 352° (N) 1,769 5.9 -16.6°
Sets 23:52:01 0° 351° (N) 2,661 6.9 -17.0°
